"Pseudo-MPEC" for ZYB10FB

Created 2019 Jan 23 11:18:36 UT using Find_Orb

Click here for an explanation of pseudo-MPECs

 
 Astrometry: 
     ZYB10FB  C2018 12 31.43907 08 32 41.25 +17 40 21.4    ~CVBI 21.0 GVNEOCPG96
     ZYB10FB  C2018 12 31.44420 08 32 46.82 +17 38 56.6    ~CVBI 20.4 GVNEOCPG96
     ZYB10FB  C2018 12 31.44932 08 32 52.45 +17 37 29.4    ~CVBI 20.2 GVNEOCPG96
     ZYB10FB  C2018 12 31.45444 08 32 58.06 +17 36 02.0    ~CVBI 20.1 GVNEOCPG96
     ZYB10FB  C2018 12 31.53441 08 34 27.42 +17 13 08.9    ~CVEI 20.3 GVNEOCPG96
     ZYB10FB  C2018 12 31.53493 08 34 28.05 +17 13 00.0    ~CVEI 20.6 GVNEOCPG96
     ZYB10FB  C2018 12 31.53791 08 34 31.49 +17 12 08.5    ~CVEI 20.5 GVNEOCPG96
     ZYB10FB  C2018 12 31.53844 08 34 32.12 +17 11 59.0    ~CVEI 20.8 GVNEOCPG96
     ZYB10FB  C2019 01 04.39709 10 32 14.87 -13 25 00.1    ~14AI 20.6 GVNEOCPG96
     ZYB10FB  C2019 01 04.39802 10 32 17.06 -13 25 35.0    ~14AI 20.4 GVNEOCPG96
     ZYB10FB  C2019 01 04.39894 10 32 19.28 -13 26 10.8    ~14AI 20.5 GVNEOCPG96
     ZYB10FB  C2019 01 04.39987 10 32 21.51 -13 26 45.9    ~14AI 20.3 GVNEOCPG96

Station data:
(G96) Mt. Lemmon Survey  (N32.442754 W110.788720)  US/Arizona.  Observers B.
   M. Africano, E. J. Christensen, G. A. Farneth, D. C. Fuls, A. R. Gibbs, A.
   D. Grauer, H. Groeller, J. A. Johnson, R. A. Kowalski, S. M. Larson, G. J.
   Leonard, R. L. Seaman, F. C. Shelly. 1.5-m reflector + 10K CCD.

Orbital elements:  ZYB10FB
   Perihelion 2019 Feb 16.623234 +/- 0.0344 TT = 14:57:27 (JD 2458531.123234)
Epoch 2019 Jan  4.0 TT = JDT 2458487.5   Earth MOID: 0.0102   Ma: 0.0311
M 332.92461644 +/- 0.10             (J2000 ecliptic)          AutoNEOCP
n   0.62066428 +/- 0.00205          Peri.  239.71613 +/- 0.025
a   1.36112563 +/- 0.003            Node   279.82981 +/- 0.0035
e   0.3518355 +/- 0.00173           Incl.    5.30797 +/- 0.022
P   1.59/580.01d           H 27.1   G  0.15   U  8.6  
q 0.88223321 +/- 0.000421    Q 1.84001805 +/- 0.00641
From 12 observations 2018 Dec. 31-2019 Jan. 4; mean residual 0".40
Residuals in arcseconds: 
181231 G96  .13-  .32-    181231 G96  .64-  .33-    190104 G96  .05+  .16-    
181231 G96  .37-  1.1+    181231 G96  .14-  .15-    190104 G96  .34-  .41+    
181231 G96  .23+  .10+    181231 G96  .18+  .38+    190104 G96  .05+  .31-    
181231 G96  .38+  .89-    181231 G96  .49+  .14+    190104 G96  .24+  .06+    

Ephemerides (geocentric):
Date (UTC) HH   RA              Dec         delta   r     elong  mag " sig PA
---- -- -- --  -------------   -----------  ------ ------ -----  --- ---- ---
2019 01 23 11  17 01 47.496   -45 19 27.92  .10165 .91965  48.2 27?? 26.0  74
2019 01 23 12  17 01 58.289   -45 18 56.00  .10187 .91953  48.2 27?? 26.0  74
2019 01 23 13  17 02 09.048   -45 18 24.11  .10209 .91940  48.2 27?? 26.0  74
2019 01 23 14  17 02 19.775   -45 17 52.25  .10231 .91928  48.3 27?? 26.0  74
2019 01 23 15  17 02 30.469   -45 17 20.42  .10253 .91915  48.3 27?? 26.0  74
2019 01 23 16  17 02 41.131   -45 16 48.61  .10276 .91903  48.3 27?? 26.0  74
2019 01 23 17  17 02 51.761   -45 16 16.83  .10298 .91891  48.3 27?? 26.0  74
2019 01 23 18  17 03 02.359   -45 15 45.08  .10320 .91878  48.3 27?? 26.0  74
2019 01 23 19  17 03 12.925   -45 15 13.36  .10342 .91866  48.3 27?? 26.0  74
2019 01 23 20  17 03 23.460   -45 14 41.66  .10364 .91854  48.3 27?? 26.0  74
2019 01 23 21  17 03 33.964   -45 14 10.00  .10387 .91842  48.3 27?? 26.0  74
2019 01 23 22  17 03 44.436   -45 13 38.36  .10409 .91829  48.3 27?? 26.0  74
2019 01 23 23  17 03 54.878   -45 13 06.74  .10431 .91817  48.3 27?? 26.0  74
2019 01 24 00  17 04 05.290   -45 12 35.16  .10453 .91805  48.3 27?? 25.9  74
2019 01 24 01  17 04 15.671   -45 12 03.60  .10475 .91793  48.3 27?? 25.9  74
2019 01 24 02  17 04 26.022   -45 11 32.07  .10498 .91781  48.3 27?? 25.9  74
2019 01 24 03  17 04 36.344   -45 11 00.57  .10520 .91768  48.3 27?? 25.9  74
2019 01 24 04  17 04 46.635   -45 10 29.10  .10542 .91756  48.3 27?? 25.9  74
2019 01 24 05  17 04 56.898   -45 09 57.65  .10564 .91744  48.3 27?? 25.9  74
2019 01 24 06  17 05 07.131   -45 09 26.23  .10587 .91732  48.3 27?? 25.9  74
2019 01 24 07  17 05 17.335   -45 08 54.84  .10609 .91720  48.3 27?? 25.9  74
2019 01 24 08  17 05 27.511   -45 08 23.48  .10631 .91708  48.3 27?? 25.9  74
2019 01 24 09  17 05 37.658   -45 07 52.14  .10653 .91696  48.3 27?? 25.9  74
2019 01 24 10  17 05 47.777   -45 07 20.83  .10676 .91684  48.3 27?? 25.9  74
2019 01 24 11  17 05 57.867   -45 06 49.55  .10698 .91672  48.4 27?? 25.9  74
2019 01 24 12  17 06 07.930   -45 06 18.29  .10720 .91660  48.4 27?? 25.9  74
2019 01 24 13  17 06 17.965   -45 05 47.07  .10742 .91648  48.4 27?? 25.9  74
2019 01 24 14  17 06 27.973   -45 05 15.87  .10765 .91636  48.4 27?? 25.9  74
2019 01 24 15  17 06 37.953   -45 04 44.69  .10787 .91624  48.4 27?? 25.9  74
2019 01 24 16  17 06 47.906   -45 04 13.55  .10809 .91612  48.4 27?? 25.9  74
2019 01 24 17  17 06 57.832   -45 03 42.43  .10832 .91600  48.4 27?? 25.9  73
2019 01 24 18  17 07 07.732   -45 03 11.34  .10854 .91588  48.4 27?? 25.9  73
2019 01 24 19  17 07 17.605   -45 02 40.28  .10876 .91577  48.4 27?? 25.9  73
2019 01 24 20  17 07 27.452   -45 02 09.24  .10899 .91565  48.4 27?? 25.9  73
2019 01 24 21  17 07 37.272   -45 01 38.23  .10921 .91553  48.4 27?? 25.9  73
2019 01 24 22  17 07 47.067   -45 01 07.25  .10943 .91541  48.4 27?? 25.9  73
2019 01 24 23  17 07 56.836   -45 00 36.29  .10966 .91529  48.4 27?? 25.9  73
2019 01 25 00  17 08 06.579   -45 00 05.36  .10988 .91518  48.4 27?? 25.9  73
2019 01 25 01  17 08 16.297   -44 59 34.46  .11010 .91506  48.4 27?? 25.9  73
2019 01 25 02  17 08 25.990   -44 59 03.58  .11032 .91494  48.4 27?? 25.9  73
2019 01 25 03  17 08 35.658   -44 58 32.73  .11055 .91482  48.5 27?? 25.9  73
2019 01 25 04  17 08 45.300   -44 58 01.91  .11077 .91471  48.5 27?? 25.9  73
2019 01 25 05  17 08 54.919   -44 57 31.11  .11100 .91459  48.5 27?? 25.9  73
2019 01 25 06  17 09 04.512   -44 57 00.34  .11122 .91447  48.5 27?? 25.9  73
2019 01 25 07  17 09 14.082   -44 56 29.60  .11144 .91436  48.5 27?? 25.9  73
2019 01 25 08  17 09 23.627   -44 55 58.88  .11167 .91424  48.5 27?? 25.9  73
2019 01 25 09  17 09 33.149   -44 55 28.19  .11189 .91413  48.5 27?? 25.9  73
2019 01 25 10  17 09 42.646   -44 54 57.52  .11211 .91401  48.5 27?? 25.9  73